Location: ???????
(55.4362°N, 38.1183°E)
Time: 14:47:58
(UTC+00:00)

Oscar 11 - Pass Details

Date: 09 December 2021
Orbit: 611 x 625 km, 97.6° (Epoch: 25 January)

Event Time Altitude Azimuth Distance (km) Brightness Sun altitude
Rises 04:40:24 0° 6° (N) 2,922 10.3 -8.0°
Reaches altitude 10° 04:43:06 10° 349° (N) 2,008 9.3 -7.7°
Maximum altitude 04:46:10 19° 304° (NW) 1,490 8.4 -7.3°
Drops below altitude 10° 04:49:13 10° 259° (W) 1,993 9.2 -6.9°
Sets 04:51:54 0° 242° (WSW) 2,892 10.2 -6.6°
